Weather in Voronezhskaya

Russia / Krasnodar Krai     45°12′50″N   39°33′48″E
temp.,
°C
wind,
m/s
gust,
m/s
humid.,
%
clouds,
%
prec.,
mm/h
press.,
hPa
HPBL,
m
27 february, sat
sat2700:00+4sw8158785 0.0 1023384
03:00+3sw7168961 0.0 1022425
06:00+3sw717880 0.0 1020457
09:00+5sw816870 0.0 1020567
12:00+8wsw915806 0.0 1019910
15:00+9wsw813764 0.0 10171037
18:00+5sw612861 0.0 1016318
21:00+5wsw5138637 0.0 1016445
28 february, sun
sun2800:00+4sw41294100 2.8 1016549
03:00+5wsw4896100 6.6 1016321
06:00+4nnw3698100 3.9 1017297
09:00+3nw2498100 7.8 1017257
12:00+4nnw3595100 0.8 1018402
15:00+6wnw3476100 1.0 1018749
18:00+4nw4686100 0.4 1018461
21:00+2nw378599 0.4 1020337
1 march, mon
mon100:00+2w239198 0.1 1021149
03:00+1wsw249698 0.1 1022120
06:00+1wsw349492 0.0 1024240
09:00+2wsw249093 0.0 1025286
12:00+5w347297 0.3 1025836
15:00+5w346898 0.6 1025941
18:00+3nw228087 0.1 102639
21:00+2nnw118586 0.1 102722
2 march, tue
tue200:00+1nnw128286 0.0 102827
03:000wnw128788 0.0 102822
06:00−1w229250 0.0 102830
09:00+2wsw348128 0.0 1028313
12:00+5w576287 0.0 10271051
15:00+6w8126085 0.0 10251380
18:00+4w7136958 0.0 1024755
21:00+3wsw8147379 0.0 1023834
3 march, wed
wed300:00+2wsw101695100 1.4 1022979
03:00+3wsw91497100 5.5 1021806
06:00+2w51087100 2.4 1021397
09:00+4wnw697269 2.4 10221057
12:00+2wnw589489 1.3 1023534
15:00+7wnw796083 1.4 10221666
18:00+4nw597464 0.1 1023370
21:00+1w378432 0.1 1025156